TimeCDT,TemperatureF,Dew PointF,Humidity,Sea Level PressureIn,VisibilityMPH,Wind Direction,Wind SpeedMPH,Gust SpeedMPH,PrecipitationIn,Events,Conditions,WindDirDegrees,DateUTC
12:15 AM,-9999,-9999,N/A,30.03,10.0,ESE,5.8,-,N/A,,Clear,120,2013-07-05 05:15:00
12:35 AM,68.0,53.6,60,30.03,10.0,ESE,4.6,-,N/A,,Clear,120,2013-07-05 05:35:00
12:55 AM,-9999,-9999,N/A,30.02,10.0,ESE,5.8,-,N/A,,Clear,110,2013-07-05 05:55:00
1:15 AM,-9999,-9999,N/A,30.02,10.0,ESE,5.8,-,N/A,,Clear,120,2013-07-05 06:15:00
1:35 AM,66.2,55.4,68,30.02,10.0,SE,4.6,-,N/A,,Clear,140,2013-07-05 06:35:00
1:55 AM,-9999,-9999,N/A,30.02,10.0,SE,5.8,-,N/A,,Clear,130,2013-07-05 06:55:00
2:15 AM,-9999,-9999,N/A,30.01,10.0,SE,4.6,-,N/A,,Clear,140,2013-07-05 07:15:00
2:35 AM,-9999,-9999,N/A,30.01,10.0,SE,4.6,-,N/A,,Clear,140,2013-07-05 07:35:00
2:55 AM,-9999,-9999,N/A,30.01,10.0,SE,5.8,-,N/A,,Clear,130,2013-07-05 07:55:00
3:15 AM,-9999,-9999,N/A,30.01,10.0,SE,5.8,-,N/A,,Clear,130,2013-07-05 08:15:00
3:35 AM,-9999,-9999,N/A,30.01,10.0,SSE,4.6,-,N/A,,Clear,150,2013-07-05 08:35:00
3:55 AM,-9999,-9999,N/A,30.01,10.0,SSE,4.6,-,N/A,,Clear,160,2013-07-05 08:55:00
4:15 AM,-9999,-9999,N/A,30.01,10.0,SSE,3.5,-,N/A,,Clear,160,2013-07-05 09:15:00
4:35 AM,-9999,-9999,N/A,30.02,10.0,Calm,Calm,-,N/A,,Clear,0,2013-07-05 09:35:00
4:55 AM,-9999,-9999,N/A,30.02,10.0,Calm,Calm,-,N/A,,Clear,0,2013-07-05 09:55:00
5:15 AM,-9999,-9999,N/A,30.03,10.0,Calm,Calm,-,N/A,,Clear,0,2013-07-05 10:15:00
5:35 AM,-9999,-9999,N/A,30.03,10.0,SE,3.5,-,N/A,,Clear,140,2013-07-05 10:35:00
5:55 AM,-9999,-9999,N/A,30.03,10.0,Calm,Calm,-,N/A,,Clear,0,2013-07-05 10:55:00
6:15 AM,-9999,-9999,N/A,30.03,10.0,Calm,Calm,-,N/A,,Clear,0,2013-07-05 11:15:00
6:35 AM,-9999,-9999,N/A,30.03,10.0,Calm,Calm,-,N/A,,Clear,0,2013-07-05 11:35:00
6:55 AM,-9999,-9999,N/A,30.04,10.0,Calm,Calm,-,N/A,,Clear,0,2013-07-05 11:55:00
7:15 AM,64.4,55.4,73,30.05,10.0,Calm,Calm,-,N/A,,Clear,0,2013-07-05 12:15:00
7:35 AM,66.2,57.2,73,30.05,10.0,Calm,Calm,-,N/A,,Clear,0,2013-07-05 12:35:00
7:55 AM,69.8,57.2,64,30.06,10.0,SSE,3.5,-,N/A,,Clear,160,2013-07-05 12:55:00
8:15 AM,71.6,57.2,60,30.07,10.0,SSE,4.6,-,N/A,,Clear,160,2013-07-05 13:15:00
8:35 AM,73.4,57.2,57,30.07,10.0,SSE,5.8,-,N/A,,Clear,160,2013-07-05 13:35:00
8:55 AM,75.2,57.2,53,30.07,10.0,South,4.6,-,N/A,,Clear,180,2013-07-05 13:55:00
9:15 AM,77.0,57.2,50,30.07,10.0,South,6.9,-,N/A,,Clear,180,2013-07-05 14:15:00
9:35 AM,78.8,57.2,47,30.07,10.0,South,8.1,-,N/A,,Clear,170,2013-07-05 14:35:00
9:55 AM,78.8,57.2,47,30.07,10.0,South,5.8,-,N/A,,Clear,190,2013-07-05 14:55:00
10:15 AM,80.6,57.2,45,30.07,10.0,South,8.1,-,N/A,,Clear,190,2013-07-05 15:15:00
10:35 AM,82.4,57.2,42,30.06,10.0,South,6.9,-,N/A,,Clear,190,2013-07-05 15:35:00
10:55 AM,-9999,-9999,N/A,30.05,10.0,SW,8.1,-,N/A,,Clear,220,2013-07-05 15:55:00
11:15 AM,82.4,57.2,42,30.06,10.0,SSW,11.5,16.1,N/A,,Clear,210,2013-07-05 16:15:00
11:35 AM,82.4,59.0,45,30.06,10.0,SW,10.4,-,N/A,,Clear,220,2013-07-05 16:35:00
11:55 AM,84.2,59.0,42,30.06,10.0,WSW,9.2,-,N/A,,Clear,240,2013-07-05 16:55:00
12:15 PM,84.2,57.2,40,30.06,10.0,SSW,11.5,-,N/A,,Clear,200,2013-07-05 17:15:00
12:35 PM,84.2,59.0,42,30.05,10.0,SSW,5.8,16.1,N/A,,Clear,200,2013-07-05 17:35:00
12:55 PM,84.2,57.2,40,30.05,10.0,SSW,8.1,-,N/A,,Clear,210,2013-07-05 17:55:00
1:15 PM,86.0,55.4,35,30.05,10.0,WSW,5.8,-,N/A,,Clear,240,2013-07-05 18:15:00
1:35 PM,86.0,55.4,35,30.05,10.0,SSW,11.5,-,N/A,,Clear,210,2013-07-05 18:35:00
1:55 PM,86.0,57.2,37,30.04,10.0,West,4.6,-,N/A,,Scattered Clouds,260,2013-07-05 18:55:00
2:15 PM,86.0,57.2,37,30.03,10.0,West,6.9,-,N/A,,Scattered Clouds,260,2013-07-05 19:15:00
2:55 PM,87.8,57.2,35,30.02,10.0,South,4.6,-,N/A,,Clear,180,2013-07-05 19:55:00
3:15 PM,87.8,55.4,33,30.01,10.0,SSW,3.5,-,N/A,,Clear,200,2013-07-05 20:15:00
3:35 PM,87.8,55.4,33,30.01,10.0,SW,5.8,-,N/A,,Clear,220,2013-07-05 20:35:00
3:55 PM,89.6,57.2,33,30.00,10.0,WSW,6.9,-,N/A,,Clear,250,2013-07-05 20:55:00
4:15 PM,89.6,55.4,31,30.00,10.0,South,8.1,-,N/A,,Clear,180,2013-07-05 21:15:00
4:35 PM,87.8,55.4,33,30.00,10.0,SE,3.5,-,N/A,,Clear,140,2013-07-05 21:35:00
4:55 PM,89.6,55.4,31,29.99,10.0,SW,9.2,-,N/A,,Clear,230,2013-07-05 21:55:00
5:15 PM,87.8,53.6,31,29.98,10.0,SSW,4.6,-,N/A,,Partly Cloudy,200,2013-07-05 22:15:00
5:35 PM,87.8,55.4,33,29.98,10.0,South,8.1,-,N/A,,Partly Cloudy,190,2013-07-05 22:35:00
5:55 PM,87.8,55.4,33,29.97,10.0,SSW,5.8,-,N/A,,Clear,200,2013-07-05 22:55:00
6:15 PM,87.8,55.4,33,29.97,10.0,South,8.1,-,N/A,,Clear,180,2013-07-05 23:15:00
6:35 PM,87.8,55.4,33,29.96,10.0,South,4.6,-,N/A,,Clear,170,2013-07-05 23:35:00
6:55 PM,87.8,55.4,33,29.96,10.0,SW,4.6,-,N/A,,Clear,220,2013-07-05 23:55:00
7:15 PM,87.8,55.4,33,29.96,10.0,SSW,5.8,-,N/A,,Clear,200,2013-07-06 00:15:00
7:35 PM,84.2,55.4,37,29.96,10.0,South,4.6,-,N/A,,Clear,180,2013-07-06 00:35:00
7:55 PM,82.4,57.2,42,29.96,10.0,SSE,4.6,-,N/A,,Clear,150,2013-07-06 00:55:00
8:15 PM,80.6,55.4,42,29.96,10.0,SSE,3.5,-,N/A,,Clear,160,2013-07-06 01:15:00
8:35 PM,80.6,55.4,42,-9999,10.0,North,-9999.0,-,N/A,,Clear,0,2013-07-06 01:35:00
8:55 PM,80.6,55.4,42,29.96,10.0,East,5.8,-,N/A,,Clear,90,2013-07-06 01:55:00
9:15 PM,78.8,57.2,47,29.96,10.0,East,6.9,-,N/A,,Clear,100,2013-07-06 02:15:00
9:35 PM,78.8,57.2,47,29.97,10.0,SE,5.8,-,N/A,,Clear,130,2013-07-06 02:35:00
9:55 PM,75.2,57.2,53,29.98,10.0,SE,5.8,-,N/A,,Clear,130,2013-07-06 02:55:00
10:15 PM,75.2,57.2,53,29.99,10.0,SE,5.8,-,N/A,,Clear,140,2013-07-06 03:15:00
10:35 PM,73.4,57.2,57,29.99,10.0,SE,4.6,-,N/A,,Clear,130,2013-07-06 03:35:00
10:55 PM,73.4,57.2,57,30.00,10.0,Calm,Calm,-,N/A,,Clear,0,2013-07-06 03:55:00
11:15 PM,73.4,57.2,57,30.00,10.0,ESE,5.8,-,N/A,,Clear,120,2013-07-06 04:15:00
11:35 PM,71.6,57.2,60,30.00,10.0,SE,6.9,-,N/A,,Clear,140,2013-07-06 04:35:00
11:55 PM,69.8,57.2,64,30.01,10.0,SSE,5.8,-,N/A,,Clear,150,2013-07-06 04:55:00